Regional Weather Roundup
Issued by NWS

Home | Current Version | Previous Version | Text Only | Print | Product List | Glossary Off
Versions: 1 2 3 4 5 6 7 8 9 10 11 12 13 14 15 16 17 18 19 20 21 22 23 24 25 26 27 28 29 30 31 32 33 34 35 36 37 38 39 40 41 42 43 44 45 46 47 48 49 50

000
ASUS43 KIND 011959
RWRIN

WEATHER ROUNDUP FOR INDIANA
NATIONAL WEATHER SERVICE INDIANAPOLIS IN
400 PM EDT SAT OCT 01 2016

NOTE: "FAIR" INDICATES FEW OR NO CLOUDS BELOW 12,000 FEET WITH NO
SIGNIFICANT WEATHER AND/OR OBSTRUCTIONS TO VISIBILITY.

* - STATION DOES NOT REPORT WEATHER SUCH AS PRECIPITATION OR FOG.

+ - STATION NOT QUALITY CONTROLLED BY THE NATIONAL WEATHER SERVICE.
    USE DATA WITH CAUTION...ESPECIALLY DEWPOINT AND RELATIVE
    HUMIDITY OBSERVATIONS.

INZ001>003-010>013-019-020-012100-
NORTHWEST INDIANA

CITY           SKY/WX    TMP DP  RH WIND       PRES   REMARKS
GARY /AIRPORT/ PTSUNNY   66  59  77 N6        29.97F
KNOX *+        CLOUDY    63  39  42 S8        29.97S
MONTICELLO +   CLOUDY    62  54  75 S6        29.97F
RENSSELAER +   RAIN      61  61 100 CALM      29.97S

$$

LMZ046-743>745-012100-
SOUTHERN LAKE MICHIGAN

STATION/POSITION TIME  TEMP    WIND        PRES    WAVE
                       AIR SEA DIR/SP/G            HT
                 (UTC) (F)     (DEG/KT/KT) (MB)    (FT)
BURNS HARBOR     1940   64      50/  7/  9 1014.9F
MICHIGAN CITY    1930   63      CALM  /  1   N/A
5NW MICH CITY    1950   62 64   40/  2/  4   N/A     3

$$

INZ004-005-014>016-021>024-012100-
NORTH CENTRAL INDIANA

CITY           SKY/WX    TMP DP  RH WIND       PRES   REMARKS
GOSHEN         TSTM      58  54  86 SE7       29.98S FOG
SOUTH BEND     MOSUNNY   66  55  67 SW8       29.97F
WARSAW +       RAIN      57  52  82 E9        29.99S

$$

INZ006>009-017-018-025>027-012100-
NORTHEAST INDIANA

CITY           SKY/WX    TMP DP  RH WIND       PRES   REMARKS
ANGOLA *+        N/A     59  50  72 SW3       30.00R
AUBURN +       CLOUDY    59  54  82 CALM      30.01S
FORT WAYNE     TSTM      55  53  93 N6        30.00S VSB 1
KENDALLVILLE + LGT RAIN  62  53  72 S8        29.99S

$$

INZ028-029-035-036-043>045-051>053-012100-
WEST CENTRAL INDIANA

CITY           SKY/WX    TMP DP  RH WIND       PRES   REMARKS
CRAWFORDSVL +  CLOUDY    61  58  90 W3        29.99S
GREENCASTLE +  CLOUDY    63  59  88 S5        30.00S
LAFAYETTE      LGT RAIN  61  59  93 CALM      29.98F
TERRE HAUTE    CLOUDY    63  58  83 SE6       29.99F

$$

INZ030>032-037>040-046>048-054>057-064-065-012100-
CENTRAL INDIANA

CITY           SKY/WX    TMP DP  RH WIND       PRES   REMARKS
ANDERSON       PTSUNNY   63  54  72 S6        30.00F
COLUMBUS       CLOUDY    61  57  88 SW7       30.02F
FRANKFORT +    CLOUDY    66  57  72 W7        30.00F
INDIANAPOLIS   CLOUDY    65  55  70 S9        29.98F
-EAGLE CREEK   CLOUDY    67  55  65 S8        29.98F
KOKOMO *+      CLOUDY    62  55  77 SW7       30.00S
MT COMFORT *+  CLOUDY    64  54  68 CALM      30.00F
SHELBYVILLE    CLOUDY    67  54  63 S13       29.99F
ZIONSVILLE +   CLOUDY    63  54  73 S7        29.99S

$$

INZ033-034-041-042-049-050-058-059-012100-
EAST CENTRAL INDIANA

CITY           SKY/WX    TMP DP  RH WIND       PRES   REMARKS
MUNCIE         CLOUDY    62  55  77 SW5       30.00S

$$

INZ060-061-067>069-081>083-085>088-012100-
SOUTHWEST INDIANA

CITY           SKY/WX    TMP DP  RH WIND       PRES   REMARKS
EVANSVILLE     PTSUNNY   72  58  61 CALM      29.99S
HUNTINGBURG *+   N/A     68  57  68 CALM      29.99F

$$

INZ062-063-066-070>080-084-089>092-012100-
SOUTH CENTRAL AND SOUTHEAST INDIANA

CITY           SKY/WX    TMP DP  RH WIND       PRES   REMARKS
BLOOMINGTON    CLOUDY    61  55  81 CALM      30.01F
MADISON *+     PTSUNNY   68  54  60 SE6       30.03F
SEYMOUR +      CLOUDY    68  55  64 SW3       30.01S

$$




USA.gov is the U.S. government's official web portal to all federal, state and local government web resources and services.